Fortuna, CA

8:43 PM PDT on October 23, 2019 (GMT -0700)
Rohnerville

Weather History for KFOT - September, 2019

Change the Weather History Date:

Sunday, September 22, 2019

  Actual Average (KEKA) Record (KEKA)
Temperature  
Mean Temperature 64 °F -  
Max Temperature 71 °F 62 °F 82 °F (2003)
Min Temperature 57 °F 50 °F 36 °F (1895)
Degree Days  
Heating Degree Days 1    
Growing Degree Days 14 (Base 50)    
Moisture  
Dew Point 58 °F    
Average Humidity 91    
Maximum Humidity 100    
Minimum Humidity 60    
Precipitation  
Precipitation 0.00 in - - ()
Sea Level Pressure  
Sea Level Pressure 30.01 in    
Wind  
Wind Speed 5 mph ()    
Max Wind Speed 14 mph    
Max Gust Speed -    
Visibility 7.4 miles    
Events      
Averages and records for this station are not official NWS values.
T = Trace of Precipitation, MM = Missing Value Source: Averaged Metar Reports

Daily Weather History Graph

Daily Weather History Graph

Search for Another Location

Airport or City:

Astronomy

Sep. 22, 2019 Rise Set
Actual Time 7:03 AM PDT 7:13 PM PDT
Civil Twilight 6:36 AM PDT 7:41 PM PDT
Nautical Twilight 6:04 AM PDT 8:12 PM PDT
Astronomical Twilight 5:32 AM PDT 8:45 PM PDT
Moon No Moon Rise 3:16 PM PDT (9/22)
Length of Visible Light 13h 04m
Length of Day
12h 09m
Last Quarter, 43% of the Moon is Illuminated
Sep 22
Last Quarter
Sep 28
New
Oct 5
First Quarter
Oct 13
Full
Oct 21
Last Quarter

Hourly Weather History & Observations

Time (PDT) Temp. Dew Point Humidity Pressure Visibility Wind Dir Wind Speed Gust Speed Precip Events Conditions
12:15 AM 57.2 °F 57.2 °F 100% 30.01 in 5.0 mi Calm Calm - N/A   Overcast
12:35 AM 59.0 °F 57.2 °F 94% 30.01 in 10.0 mi Calm Calm - N/A   Overcast
12:55 AM 57.2 °F 57.2 °F 100% 30.00 in 10.0 mi Calm Calm - N/A   Overcast
1:15 AM 57.2 °F 57.2 °F 100% 30.01 in 10.0 mi WNW 3.5 mph - N/A   Overcast
1:35 AM 57.2 °F 57.2 °F 100% 30.01 in 10.0 mi WNW 4.6 mph - N/A   Overcast
1:55 AM 57.2 °F 57.2 °F 100% 30.00 in 10.0 mi West 3.5 mph - N/A   Overcast
2:15 AM 57.2 °F 57.2 °F 100% 30.00 in 10.0 mi Calm Calm - N/A   Overcast
2:35 AM 57.2 °F 57.2 °F 100% 30.00 in 8.0 mi Calm Calm - N/A   Overcast
2:55 AM 57.2 °F 57.2 °F 100% 30.00 in 5.0 mi Calm Calm - N/A   Overcast
3:15 AM 57.2 °F 57.2 °F 100% 30.00 in 5.0 mi NW 3.5 mph - N/A   Overcast
3:35 AM 57.2 °F 57.2 °F 100% 30.00 in 10.0 mi NW 5.8 mph - N/A   Overcast
3:55 AM 57.2 °F 57.2 °F 100% 30.00 in 9.0 mi NW 10.4 mph - N/A   Overcast
4:15 AM 57.2 °F 57.2 °F 100% 30.01 in 1.5 mi WNW 6.9 mph - N/A   Overcast
4:35 AM 57.2 °F 57.2 °F 100% 30.02 in 0.2 mi WNW 8.1 mph - N/A   Overcast
4:55 AM 57.2 °F 57.2 °F 100% 30.03 in 0.2 mi WNW 8.1 mph - N/A   Overcast
5:15 AM 57.2 °F 57.2 °F 100% 30.03 in 0.2 mi NNW 4.6 mph - N/A   Overcast
5:35 AM 57.2 °F 57.2 °F 100% 30.03 in 0.2 mi NNW 4.6 mph - N/A   Overcast
5:55 AM 57.2 °F 57.2 °F 100% 30.03 in 0.5 mi WNW 5.8 mph - N/A   Overcast
6:15 AM 57.2 °F 57.2 °F 100% 30.03 in 0.2 mi Calm Calm - N/A   Overcast
6:35 AM 57.2 °F 57.2 °F 100% 30.02 in 2.0 mi Calm Calm - N/A   Overcast
6:55 AM 57.2 °F 57.2 °F 100% 30.01 in 0.5 mi SSW 3.5 mph - N/A   Overcast
7:15 AM 57.2 °F 57.2 °F 100% 29.99 in 10.0 mi South 3.5 mph - N/A   Scattered Clouds
7:35 AM 57.2 °F 57.2 °F 100% 29.98 in 10.0 mi ESE 6.9 mph - N/A   Clear
7:55 AM 57.2 °F 57.2 °F 100% 29.96 in 5.0 mi SE 11.5 mph - N/A   Partly Cloudy
8:15 AM 57.2 °F 57.2 °F 100% 29.97 in 6.0 mi SE 9.2 mph - N/A   Scattered Clouds
8:35 AM 57.2 °F 57.2 °F 100% 29.97 in 10.0 mi ESE 8.1 mph - N/A   Partly Cloudy
8:55 AM 59.0 °F 57.2 °F 94% 29.97 in 10.0 mi ESE 8.1 mph - N/A   Partly Cloudy
9:15 AM 59.0 °F 57.2 °F 94% 29.98 in 10.0 mi ESE 6.9 mph - N/A   Clear
9:35 AM 60.8 °F 59.0 °F 94% 30.00 in 10.0 mi NW 4.6 mph - N/A   Clear
9:55 AM 60.8 °F 57.2 °F 88% 30.01 in 10.0 mi West 8.1 mph - N/A   Scattered Clouds
10:15 AM 59.0 °F 59.0 °F 100% 30.02 in 10.0 mi West 10.4 mph - N/A   Mostly Cloudy
10:35 AM 60.8 °F 59.0 °F 94% 30.03 in 10.0 mi West 9.2 mph - N/A   Scattered Clouds
10:55 AM 62.6 °F 59.0 °F 88% 30.03 in 10.0 mi WNW 6.9 mph - N/A   Mostly Cloudy
11:15 AM 62.6 °F 59.0 °F 88% 30.03 in 10.0 mi WNW 8.1 mph - N/A   Overcast
11:35 AM 64.4 °F 57.2 °F 77% 30.03 in 10.0 mi WNW 6.9 mph - N/A   Overcast
11:55 AM 64.4 °F 57.2 °F 77% 30.02 in 10.0 mi Calm Calm - N/A   Mostly Cloudy
12:15 PM 66.2 °F 57.2 °F 73% 30.01 in 10.0 mi NNW 4.6 mph - N/A   Mostly Cloudy
12:35 PM 66.2 °F 57.2 °F 73% 30.00 in 10.0 mi Calm Calm - N/A   Partly Cloudy
12:55 PM 68.0 °F 57.2 °F 68% 29.99 in 10.0 mi SSE 5.8 mph - N/A   Scattered Clouds
1:15 PM 68.0 °F 57.2 °F 68% 29.99 in 10.0 mi Calm Calm - N/A   Mostly Cloudy
1:35 PM 69.8 °F 57.2 °F 64% 29.99 in 10.0 mi SW 3.5 mph - N/A   Mostly Cloudy
1:55 PM 71.6 °F 57.2 °F 60% 29.98 in 10.0 mi NW 3.5 mph - N/A   Mostly Cloudy
2:15 PM 71.6 °F 57.2 °F 60% 29.98 in 10.0 mi West 6.9 mph - N/A   Mostly Cloudy
2:35 PM 71.6 °F 57.2 °F 60% 29.98 in 10.0 mi NW 9.2 mph - N/A   Overcast
2:55 PM 69.8 °F 57.2 °F 64% 29.99 in 10.0 mi NW 9.2 mph - N/A   Overcast
3:15 PM 68.0 °F 57.2 °F 68% 29.99 in 10.0 mi NW 13.8 mph - N/A   Overcast
3:35 PM 64.4 °F 59.0 °F 83% 29.99 in 5.0 mi WNW 8.1 mph - N/A   Mostly Cloudy
3:55 PM 64.4 °F 60.8 °F 88% 29.99 in 10.0 mi WNW 9.2 mph - N/A   Mostly Cloudy
4:15 PM 66.2 °F 59.0 °F 78% 29.99 in 10.0 mi WNW 8.1 mph - N/A   Overcast
4:35 PM 66.2 °F 59.0 °F 78% 29.98 in 10.0 mi WNW 8.1 mph - N/A   Overcast
4:55 PM 66.2 °F 59.0 °F 78% 29.99 in 10.0 mi WNW 8.1 mph - N/A   Overcast
5:15 PM 66.2 °F 59.0 °F 78% 29.99 in 10.0 mi West 12.7 mph - N/A   Overcast
5:35 PM 62.6 °F 59.0 °F 88% 29.99 in 10.0 mi West 13.8 mph - N/A   Overcast
5:55 PM 62.6 °F 59.0 °F 88% 30.00 in 5.0 mi NW 6.9 mph - N/A   Overcast
6:15 PM 62.6 °F 59.0 °F 88% 30.00 in 10.0 mi WNW 9.2 mph - N/A   Mostly Cloudy
6:35 PM 60.8 °F 59.0 °F 94% 30.00 in 10.0 mi WNW 8.1 mph - N/A   Overcast
6:55 PM 60.8 °F 59.0 °F 94% 30.01 in 3.0 mi West 10.4 mph - N/A   Overcast
7:15 PM 59.0 °F 59.0 °F 100% 30.01 in 1.0 mi NW 9.2 mph - N/A   Overcast
7:35 PM 59.0 °F 59.0 °F 100% 30.02 in 0.2 mi WNW 10.4 mph - N/A   Overcast
7:55 PM 59.0 °F 59.0 °F 100% 30.02 in 10.0 mi WNW 11.5 mph - N/A   Overcast
8:15 PM 59.0 °F 59.0 °F 100% 30.03 in 8.0 mi WNW 10.4 mph - N/A   Overcast
8:35 PM 59.0 °F 59.0 °F 100% 30.04 in 2.0 mi West 10.4 mph - N/A   Overcast
8:55 PM 59.0 °F 57.2 °F 94% 30.04 in 0.2 mi West 10.4 mph - N/A   Overcast
9:15 PM 57.2 °F 57.2 °F 100% 30.04 in 10.0 mi West 6.9 mph - N/A   Overcast
9:35 PM 57.2 °F 57.2 °F 100% 30.04 in 10.0 mi West 9.2 mph - N/A   Overcast
9:55 PM 59.0 °F 57.2 °F 94% 30.05 in 10.0 mi WNW 6.9 mph - N/A   Overcast
10:15 PM 59.0 °F 57.2 °F 94% 30.05 in 10.0 mi NW 8.1 mph - N/A   Overcast
10:35 PM 59.0 °F 57.2 °F 94% 30.06 in 10.0 mi WNW 9.2 mph - N/A   Overcast
10:55 PM 59.0 °F 57.2 °F 94% 30.06 in 10.0 mi WNW 10.4 mph - N/A   Overcast
11:15 PM 57.2 °F 57.2 °F 100% 30.06 in 10.0 mi WNW 9.2 mph - N/A   Overcast
11:35 PM 57.2 °F 57.2 °F 100% 30.06 in 2.0 mi WNW 9.2 mph - N/A   Overcast
11:55 PM 57.2 °F 57.2 °F 100% 30.06 in 0.2 mi WNW 6.9 mph - N/A   Overcast